[[{"header":{"parameterUnit":"m.s-1","parameterCategory":1,"la1":30.2991,"la2":30.254,"lo1":-89.0895,"lo2":-89.0444,"dy":0.0017,"dx":0.0017,"nx":28,"ny":28,"refTime":"2024-12-31T09:00:00:Z","depth":0,"parameterNumber":2,"parameterNumberName":"U-component_of_WINDS"},"data":[0,0,0,0,0,0,0,0,0,0,0,0,0,0,0,0,0,0,0,0,0,0,0,0,0,0,0,0,0,0,0,0,0,0,0,0,0,0,0,0,0,0,0,0,0,0,0,0,0,0,0,0,0,0,0,0,0,0,-2.1616,-2.1616,0,-2.1672,-2.1673,-2.1673,-2.1554,-2.1551,-2.1547,-2.1543,-2.1604,-2.1609,-2.1614,0,0,0,0,0,0,0,0,0,0,0,0,0,-2.1409,-2.1413,-2.1616,-2.1616,-2.1617,-2.1672,-2.1673,-2.1673,-2.1555,-2.155,-2.1546,-2.1541,-2.1603,-2.1609,-2.1615,0,0,0,0,0,0,0,0,0,0,0,0,0,-2.1485,-2.1415,-2.1616,-2.1565,-2.1561,-2.1672,-2.1673,-2.1674,-2.1556,-2.155,-2.1544,-2.1539,-2.16,-2.1608,-2.1616,-2.178,0,0,-2.164,-2.1643,0,0,0,0,0,0,0,0,-2.1481,-2.1493,-2.1571,-2.1568,-2.1564,-2.16,-2.1622,-2.1709,-2.1558,-2.1558,-2.1543,-2.1536,-2.1608,-2.1615,-2.1638,-2.1783,-2.1786,-2.164,-2.1645,-2.1649,-2.1651,0,0,0,0,0,0,0,-2.1476,-2.149,-2.1638,-2.1573,-2.1568,-2.154,-2.1544,-2.1638,-2.1615,-2.1557,-2.1549,-2.1557,-2.1605,-2.1631,-2.1639,-2.1786,-2.164,-2.1647,-2.1652,-2.1655,-2.207,-2.2076,0,0,0,0,0,0,-2.1477,-2.1486,-2.1636,-2.164,-2.1507,-2.1548,-2.1553,-2.1594,-2.1613,-2.1611,-2.1562,-2.1551,-2.162,-2.163,-2.164,-2.1835,-2.1649,-2.1656,-2.166,-2.2063,-2.2071,-2.2078,0,0,0,0,0,0,-2.1473,-2.1491,-2.1634,-2.1561,-2.1577,-2.1558,-2.1605,-2.1599,-2.1624,-2.1617,-2.1612,-2.1593,-2.1616,-2.1629,-2.1746,-2.1835,-2.1659,-2.1667,-2.2056,-2.2066,-2.2074,-2.2225,0,0,0,0,0,0,-2.1467,-2.149,-2.1552,-2.1563,-2.1581,-2.1739,-2.1611,-2.1604,-2.1638,-2.1625,-2.1644,-2.1642,-2.1612,-2.1735,-2.1754,-2.1843,-2.1673,-2.2048,-2.206,-2.2071,-2.2212,-2.2239,-2.2261,0,0,0,0,0,-2.146,-2.1593,-2.1556,-2.1575,-2.1658,-2.1744,-2.1754,-2.1717,-2.1646,-2.1708,-2.1703,-2.1642,-2.1822,-2.1748,-2.1768,-2.1861,-2.2042,-2.2057,-2.207,-2.2201,-2.2233,-2.2261,0,0,0,0,0,0,-2.1595,-2.1594,-2.1552,-2.1692,-2.1719,-2.1724,-2.1801,-2.1752,-2.18,-2.1786,-2.1737,-2.1743,-2.187,-2.1876,-2.1794,-2.2021,-2.192,-2.1939,-2.2013,-2.2043,-2.2067,-2.2064,-2.1679,0,0,0,0,0,-2.164,-2.171,-2.1705,-2.1829,-2.1844,-2.1821,-2.1857,-2.1825,-2.1851,-2.1862,-2.1866,-2.1895,-2.1957,-2.2,-2.2057,-2.2211,-2.2215,-2.2285,-2.231,-2.233,-2.2348,-2.2431,-2.2462,-2.2124,-2.2124,-2.2124,0,0,-2.1736,-2.1744,-2.1791,-2.1856,-2.1873,-2.1947,-2.1831,-2.1914,-2.1969,-2.1875,-2.1986,-2.199,-2.2018,-2.2155,-2.2215,-2.2164,-2.2441,-2.2348,-2.2364,-2.2371,-2.2448,-2.248,-2.2509,-2.2134,-2.2132,-2.2131,0,0,-2.1949,-2.1961,-2.2066,-2.2085,-2.2111,-2.2095,-2.212,-2.2132,-2.2131,-2.224,-2.2172,-2.2236,-2.2345,-2.2369,-2.2395,-2.2616,-2.2562,-2.2636,-2.2765,-2.2846,-2.2873,-2.2896,-2.2977,-2.3006,-2.2653,-2.2653,-2.2653,0,-2.2065,-2.2173,-2.2127,-2.2215,-2.2246,-2.2162,-2.2269,-2.229,-2.2335,-2.2359,-2.2301,-2.2436,-2.2449,-2.2591,-2.2645,-2.2668,-2.2696,-2.2634,-2.2872,-2.2895,-2.2917,-2.2993,-2.3023,-2.2662,-2.2661,-2.266,-2.2659,0,-2.2315,-2.2391,-2.2472,-2.2517,-2.2556,-2.2654,-2.2623,-2.2669,-2.2634,-2.2624,-2.2737,-2.2749,-2.2808,-2.2839,-2.2805,-2.2976,-2.2944,-2.288,-2.2778,-2.2959,-2.3029,-2.3058,-2.2675,-2.2672,-2.2669,-2.2667,0,0,-2.2616,-2.2632,-2.2664,-2.2683,-2.2705,-2.2764,-2.2857,-2.2913,-2.2954,-2.2987,-2.3065,-2.3159,-2.31,-2.313,-2.3098,-2.3169,-2.3345,-2.3096,-2.3096,-2.3144,-2.3535,-2.3585,-2.3619,-2.3308,-2.3313,-2.3317,-2.3533,0,-2.2828,-2.2988,-2.2949,-2.3108,-2.3178,-2.3099,-2.318,-2.3203,-2.3196,-2.3255,-2.3246,-2.3314,-2.323,-2.3248,-2.3314,-2.3309,-2.3423,-2.3293,-2.3382,-2.3385,-2.3379,-2.3656,-2.3709,-2.3912,-2.356,-2.3565,-2.3568,0,-2.3098,-2.314,-2.3306,-2.3317,-2.3344,-2.3418,-2.3467,-2.3523,-2.3548,-2.3538,-2.3571,-2.3525,-2.3618,-2.3513,-2.3641,-2.3553,-2.3587,-2.359,-2.3597,-2.3606,-2.349,-2.3674,-2.3976,-2.4007,-2.3611,-2.3608,-2.3605,0,-2.3303,-2.3402,-2.3514,-2.3532,-2.3547,-2.3601,-2.361,-2.3629,-2.3665,-2.3708,-2.3731,-2.3784,-2.3814,-2.3856,-2.3826,-2.3752,-2.396,-2.3852,-2.3956,-2.3957,-2.4005,-2.4003,-2.4319,-2.4023,-2.4023,-2.4022,-2.4022,0,-2.3546,-2.3651,-2.3606,-2.3676,-2.3791,-2.3745,-2.386,-2.386,-2.3877,-2.3946,-2.388,-2.3946,-2.3901,-2.3963,-2.394,-2.405,-2.4064,-2.4059,-2.4052,-2.4067,-2.4068,-2.409,-2.4076,-2.403,-2.4029,-2.4027,-2.4026,0,-2.3796,-2.377,-2.3888,-2.3892,-2.3895,-2.398,-2.3984,-2.4049,-2.4035,-2.4123,-2.4141,-2.4121,-2.4191,-2.4164,-2.4238,-2.4222,-2.4364,-2.4338,-2.4356,-2.435,-2.4456,-2.4447,-2.4799,-2.4843,-2.4518,-2.4521,-2.4523,0,-2.3954,-2.4033,-2.4045,-2.4085,-2.4099,-2.4165,-2.4201,-2.4159,-2.42,-2.4233,-2.4294,-2.4358,-2.4407,-2.4522,-2.4515,-2.4572,-2.4547,-2.4667,-2.4556,-2.4568,-2.4552,-2.4548,-2.4557,-2.469,-2.4694,-2.4697,-2.4699,0,-2.4237,-2.422,-2.4275,-2.4325,-2.437,-2.4408,-2.444,-2.4478,-2.4436,-2.4486,-2.4555,-2.4593,-2.4669,-2.4734,-2.4784,-2.4794,-2.4741,-2.4734,-2.4761,-2.4778,-2.4786,-2.4785,-2.4419,-2.4727,-2.4724,-2.4722,-2.472,-2.4719,-2.4447,-2.4514,-2.4533,-2.4596,-2.4615,-2.4647,-2.4708,-2.4701,-2.4759,-2.4816,-2.4787,-2.4869,-2.4891,-2.4953,-2.497,-2.5034,-2.4988,-2.5027,-2.5037,-2.5048,-2.5063,-2.4774,-2.5043,-2.5042,-2.5041,-2.5041,-2.504,0,-2.4729,-2.4737,-2.4795,-2.4842,-2.4892,-2.4835,-2.4867,-2.4913,-2.4986,-2.501,-2.5059,-2.514,-2.5202,-2.5199,-2.5257,-2.5309,-2.5286,-2.5326,-2.5323,-2.5326,-2.51,-2.5072,-2.5343,-2.5343,-2.5343,-2.5343,-2.5343,-2.5343,-2.4882,-2.4991,-2.4977,-2.5096,-2.5102,-2.5182,-2.5205,-2.5234,-2.5254,-2.5346,-2.5397,-2.5394,-2.5408,-2.5466,-2.5521,-2.5518,-2.5544,-2.5593,-2.5582,-2.5372,-2.5342,-2.5313,-2.5286,-2.5598,-2.5599,-2.5802,-2.5804,-2.5806]},{"header":{"parameterUnit":"m.s-1","parameterCategory":1,"la1":30.2991,"la2":30.254,"lo1":-89.0895,"lo2":-89.0444,"dy":0.0017,"dx":0.0017,"nx":28,"ny":28,"refTime":"2024-12-31T09:00:00:Z","depth":0,"parameterNumber":3,"parameterNumberName":"V-component_of_WINDS"},"data":[0,0,0,0,0,0,0,0,0,0,0,0,0,0,0,0,0,0,0,0,0,0,0,0,0,0,0,0,0,0,0,0,0,0,0,0,0,0,0,0,0,0,0,0,0,0,0,0,0,0,0,0,0,0,0,0,0,0,-3.0983,-3.0984,0,-3.1056,-3.1057,-3.1057,-3.1012,-3.101,-3.1008,-3.1006,-3.1078,-3.1082,-3.1086,0,0,0,0,0,0,0,0,0,0,0,0,0,-3.0803,-3.0807,-3.0983,-3.0984,-3.0985,-3.1056,-3.1057,-3.1058,-3.1012,-3.101,-3.1007,-3.1005,-3.1077,-3.1081,-3.1086,0,0,0,0,0,0,0,0,0,0,0,0,0,-3.0879,-3.0808,-3.0983,-3.0971,-3.0971,-3.1055,-3.1057,-3.1058,-3.1013,-3.101,-3.1006,-3.1003,-3.1075,-3.1081,-3.1087,-3.1187,0,0,-3.1105,-3.1107,0,0,0,0,0,0,0,0,-3.0875,-3.0886,-3.0972,-3.0972,-3.0972,-3.1022,-3.102,-3.1101,-3.1014,-3.0997,-3.1006,-3.1002,-3.1062,-3.1068,-3.1089,-3.119,-3.1193,-3.1105,-3.1109,-3.1111,-3.1113,0,0,0,0,0,0,0,-3.087,-3.0882,-3.1012,-3.0973,-3.0973,-3.0961,-3.0968,-3.1035,-3.1046,-3.0998,-3.0995,-3.1004,-3.1061,-3.1083,-3.109,-3.1194,-3.1105,-3.111,-3.1114,-3.1116,-3.1381,-3.1384,0,0,0,0,0,0,-3.0866,-3.0878,-3.101,-3.1014,-3.0914,-3.0967,-3.0975,-3.1009,-3.1045,-3.1048,-3.1007,-3.1002,-3.1075,-3.1084,-3.1093,-3.1212,-3.1111,-3.1117,-3.112,-3.1377,-3.1381,-3.1385,0,0,0,0,0,0,-3.0862,-3.0878,-3.1007,-3.0945,-3.0961,-3.0973,-3.1012,-3.1012,-3.1034,-3.1052,-3.1054,-3.1028,-3.1073,-3.1084,-3.1164,-3.1214,-3.1119,-3.1125,-3.1373,-3.1378,-3.1383,-3.1452,0,0,0,0,0,0,-3.0857,-3.0877,-3.0916,-3.0947,-3.0964,-3.1078,-3.1015,-3.1016,-3.1045,-3.1039,-3.1072,-3.1075,-3.1071,-3.1155,-3.117,-3.122,-3.1129,-3.1369,-3.1375,-3.1382,-3.1445,-3.1459,-3.1471,0,0,0,0,0,-3.0851,-3.0932,-3.0918,-3.0934,-3.1013,-3.108,-3.109,-3.1085,-3.1049,-3.1088,-3.1099,-3.1074,-3.1206,-3.1164,-3.1179,-3.1233,-3.1365,-3.1373,-3.1381,-3.144,-3.1456,-3.147,0,0,0,0,0,0,-3.0906,-3.0936,-3.092,-3.1014,-3.1045,-3.1073,-3.1121,-3.1103,-3.1145,-3.1138,-3.1129,-3.1137,-3.1219,-3.1234,-3.1186,-3.1331,-3.128,-3.1291,-3.1319,-3.1335,-3.1347,-3.1342,-3.1134,0,0,0,0,0,-3.0929,-3.0982,-3.1005,-3.1085,-3.1101,-3.1109,-3.1138,-3.1131,-3.1163,-3.1176,-3.1193,-3.1224,-3.1272,-3.1304,-3.135,-3.1447,-3.1453,-3.1491,-3.1504,-3.1514,-3.1524,-3.1576,-3.1593,-3.1411,-3.1411,-3.1411,0,0,-3.0977,-3.1,-3.1034,-3.1097,-3.112,-3.1174,-3.112,-3.118,-3.122,-3.1184,-3.126,-3.1274,-3.1308,-3.1397,-3.1436,-3.1411,-3.1576,-3.1524,-3.1532,-3.1537,-3.1586,-3.1603,-3.1618,-3.1416,-3.1416,-3.1415,0,0,-3.1092,-3.1115,-3.1185,-3.1209,-3.1245,-3.125,-3.1266,-3.1297,-3.1304,-3.1381,-3.1355,-3.1402,-3.1486,-3.1511,-3.1535,-3.1659,-3.1637,-3.1674,-3.174,-3.1791,-3.1805,-3.1818,-3.1862,-3.1878,-3.1684,-3.1684,-3.1684,0,-3.1148,-3.1229,-3.1222,-3.1284,-3.1312,-3.1283,-3.1353,-3.1376,-3.1425,-3.1445,-3.1416,-3.1521,-3.1542,-3.1635,-3.1666,-3.1686,-3.1704,-3.167,-3.1804,-3.1816,-3.1828,-3.187,-3.1887,-3.1688,-3.1688,-3.1687,-3.1687,0,-3.1295,-3.1351,-3.1403,-3.1451,-3.1485,-3.1551,-3.1553,-3.1588,-3.1578,-3.1585,-3.1663,-3.1687,-3.1737,-3.1758,-3.1749,-3.1851,-3.1834,-3.1805,-3.1753,-3.185,-3.1889,-3.1905,-3.1695,-3.1693,-3.1692,-3.1691,0,0,-3.1447,-3.1491,-3.151,-3.1532,-3.1569,-3.1612,-3.1676,-3.1725,-3.1755,-3.1789,-3.1842,-3.1913,-3.1887,-3.1914,-3.1907,-3.1951,-3.2048,-3.1916,-3.1917,-3.194,-3.2161,-3.2182,-3.2201,-3.2033,-3.2036,-3.2039,-3.2158,0,-3.1565,-3.1676,-3.1672,-3.1776,-3.1828,-3.1801,-3.1856,-3.1885,-3.1893,-3.1937,-3.1946,-3.1997,-3.1957,-3.1974,-3.2016,-3.2027,-3.2092,-3.2018,-3.2082,-3.2084,-3.2074,-3.2222,-3.2245,-3.2356,-3.2173,-3.2175,-3.2177,0,-3.1717,-3.1757,-3.1866,-3.1896,-3.1917,-3.1967,-3.2011,-3.2055,-3.2086,-3.2089,-3.2119,-3.2105,-3.2168,-3.2115,-3.2202,-3.2152,-3.2177,-3.2187,-3.2191,-3.2196,-3.2137,-3.2231,-3.2391,-3.2408,-3.2201,-3.22,-3.2198,0,-3.1817,-3.1898,-3.1974,-3.1993,-3.2029,-3.2065,-3.2081,-3.211,-3.2139,-3.2178,-3.2197,-3.2242,-3.2267,-3.2302,-3.23,-3.2262,-3.2388,-3.2335,-3.2392,-3.2392,-3.242,-3.2418,-3.2586,-3.2436,-3.2436,-3.2436,-3.2436,0,-3.1948,-3.2016,-3.2019,-3.2066,-3.2141,-3.2135,-3.2209,-3.2221,-3.2247,-3.2295,-3.2274,-3.2319,-3.2314,-3.236,-3.2359,-3.2431,-3.2442,-3.2446,-3.2444,-3.2448,-3.2447,-3.2464,-3.2456,-3.244,-3.2439,-3.2438,-3.2438,0,-3.2072,-3.2077,-3.2158,-3.2186,-3.2194,-3.2248,-3.2271,-3.2315,-3.2321,-3.2382,-3.2396,-3.2406,-3.2458,-3.246,-3.252,-3.252,-3.2607,-3.2597,-3.2597,-3.2595,-3.2652,-3.2646,-3.2837,-3.2861,-3.2696,-3.2697,-3.2699,0,-3.2156,-3.2208,-3.2241,-3.2272,-3.2291,-3.2341,-3.2371,-3.2367,-3.2399,-3.2438,-3.2477,-3.2528,-3.2568,-3.2653,-3.2665,-3.271,-3.2701,-3.2765,-3.2708,-3.2709,-3.2702,-3.2699,-3.2704,-3.2776,-3.2778,-3.2779,-3.2781,0,-3.2304,-3.2304,-3.2348,-3.2394,-3.2431,-3.2467,-3.25,-3.2526,-3.2525,-3.2562,-3.2616,-3.2647,-3.2709,-3.2759,-3.2803,-3.2819,-3.28,-3.2798,-3.2814,-3.2818,-3.2815,-3.2817,-3.2627,-3.2794,-3.2793,-3.2792,-3.2791,-3.279,-3.241,-3.2455,-3.2485,-3.2535,-3.256,-3.2591,-3.2634,-3.2645,-3.269,-3.274,-3.2734,-3.2794,-3.2823,-3.2881,-3.29,-3.2946,-3.2924,-3.2947,-3.2953,-3.2958,-3.2964,-3.2808,-3.2954,-3.2954,-3.2954,-3.2953,-3.2953,0,-3.2557,-3.2575,-3.2621,-3.2668,-3.2708,-3.2687,-3.2722,-3.2756,-3.2809,-3.2838,-3.2878,-3.2939,-3.2988,-3.3003,-3.305,-3.3084,-3.3076,-3.3096,-3.3094,-3.3098,-3.2981,-3.2963,-3.3102,-3.3102,-3.3102,-3.3102,-3.3102,-3.3102,-3.2638,-3.2712,-3.2715,-3.2801,-3.2818,-3.2876,-3.2898,-3.2927,-3.295,-3.3019,-3.306,-3.307,-3.3093,-3.3142,-3.3185,-3.3188,-3.3206,-3.323,-3.323,-3.3121,-3.3106,-3.3092,-3.3074,-3.3234,-3.3234,-3.3342,-3.3343,-3.3344]}]]